Home   Weather   Frankfurt an der Oder   Past weeks

Flag for Germany Past Weather in Frankfurt an der Oder, Brandenburg, Germany — Yesterday and Last 2 Weeks

Now
66 °F

Sunny.


Feels Like: 66 °F
Forecast: 51 / 70 °F
Wind: 1 mph from Southeast

Location: Gorzow Wlkp

Current Time: Sep 27, 2016 at 5:42:31 PM

Latest Report: Sep 27, 2016 at 5:00 PM


Visibility: 19 mi

Pressure: 30.31 "Hg

Humidity: 44%

Dew Point: 44 °F

Location of Frankfurt an der OderLocation

Past Weather in Frankfurt an der Oder — Graph

°F

Frankfurt an der Oder Temperature Yesterday

Maximum temperature yesterday: 69 °F (at 3:00 PM)
Minimum temperature yesterday: 45 °F (at 7:00 AM)
Average temperature yesterday: 57 °F

High & Low Weather Summary for the Past Weeks

 TemperatureHumidityPressure
High87 °F (Sep 12, 4:00 PM)93% (Sep 21, 7:00 AM)30.33 "Hg (Sep 21, 7:00 AM)
Low40 °F (Sep 22, 7:00 AM)32% (Sep 14, 2:00 PM)29.86 "Hg (Sep 16, 7:00 PM)
Average61 °F64%30.11 "Hg
* Reported Sep 12 4:00 PM — Sep 27 4:00 PM, Frankfurt an der Oder, Weather by CustomWeather, © 2016

Note: Actual official high and low records may vary slightly from our data, if they occured in-between our weather recording intervals... More about our weather records

Advertising

Frankfurt an der Oder Weather History for the Previous 24 Hours

Scroll right to see more
 ConditionsComfort  
Time TempWeatherWind HumidityBarometerVisibility
4:00 PM
Tue, Sep 27
67 °FPassing clouds.1 mph44%30.31 "Hg19 mi
3:00 PM66 °FPassing clouds.2 mph42%30.32 "Hg19 mi
2:00 PM65 °FPassing clouds.1 mph48%30.32 "Hg16 mi
1:00 PM64 °FPassing clouds.2 mph53%30.33 "Hg12 mi
12:00 PM63 °FSunny.2 mph61%30.33 "Hg9 mi
11:00 AM58 °FSunny.1 mph69%30.33 "Hg9 mi
10:00 AM53 °FPassing clouds.2 mph73%30.33 "Hg7 mi
9:00 AM50 °FPassing clouds.2 mph80%30.32 "Hg6 mi
8:00 AM46 °FFog.2 mph89%30.31 "Hg5 mi
7:00 AM44 °FFog.2 mph90%30.30 "Hg5 mi
6:00 AM45 °FFog.2 mph89%30.28 "Hg5 mi
5:00 AM46 °FClear.2 mph87%30.28 "Hg7 mi
4:00 AM48 °FClear.2 mph85%30.27 "Hg9 mi
3:00 AM49 °FClear.2 mph84%30.26 "Hg12 mi
2:00 AM49 °FClear.1 mph84%30.26 "Hg12 mi
1:00 AM50 °FClear.1 mph81%30.26 "Hg16 mi
12:00 AM52 °FClear.2 mph76%30.26 "Hg16 mi
11:00 PM
Mon, Sep 26
54 °FClear.2 mph71%30.25 "Hg19 mi
10:00 PM56 °FClear.3 mph67%30.24 "Hg25 mi
9:00 PM58 °FClear.3 mph62%30.24 "Hg25 mi
8:00 PM59 °FPassing clouds.2 mph59%30.22 "Hg25 mi
7:00 PM61 °FPassing clouds.2 mph55%30.22 "Hg25 mi
6:00 PM66 °FPassing clouds.2 mph43%30.20 "Hg25 mi
5:00 PM68 °FPassing clouds.2 mph38%30.20 "Hg25 mi
Weather by CustomWeather, © 2016

See weather overviewHow to use our weather pages